Location: Bergnerzell
(49.1816°N, 10.2565°E)
Time: 23:54:15
(UTC+00:00)

Meteor 1-24 Rocket - Pass Details

Date: 07 August 2024
Orbit: 790 x 925 km, 81.3° (Epoch: 09 September)

Event Time Altitude Azimuth Distance (km) Brightness Sun altitude
Rises 01:50:48 0° 353° (N) 3,467 7.6 -17.0°
Reaches altitude 10° 01:53:25 10° 1° (N) 2,546 7.0 -16.7°
Maximum altitude 01:58:48 38° 69° (ENE) 1,351 5.3 -16.2°
Drops below altitude 10° 02:04:17 10° 136° (SE) 2,601 6.2 -15.6°
Sets 02:06:58 0° 145° (SE) 3,549 6.8 -15.3°
